Regional Weather Roundup
Issued by NWS

Home | Current Version | Previous Version | Graphics & Text | Print | Product List | Glossary On
Versions: 1 2 3 4 5 6 7 8 9 10 11 12 13 14 15 16 17 18 19 20 21 22 23 24 25 26 27 28 29 30 31 32 33 34 35 36 37 38 39 40 41 42 43 44 45 46 47 48 49 50
000
ASUS43 KMKX 030659
RWRWI

WISCONSIN REGIONAL WEATHER ROUNDUP
NATIONAL WEATHER SERVICE MILWAUKEE/SULLIVAN WI
100 AM CST TUE MAR 03 2015

NOTE: "FAIR" INDICATES FEW OR NO CLOUDS BELOW 12,000 FEET WITH NO
SIGNIFICANT WEATHER AND/OR OBSTRUCTIONS TO VISIBILITY.

WIZ001-002-006>008-014>016-023>028-030800-
NORTHWEST WISCONSIN

CITY           SKY/WX    TMP DP  RH WIND       PRES   REMARKS
SUPERIOR ARPT  CLOUDY    22   6  49 SW8       30.00F WCI  13
ASHLAND        CLOUDY    22   5  48 S9        30.01F WCI  12
HAYWARD        CLOUDY    21   7  54 S13       30.00F WCI   9
SIREN          CLOUDY    22   8  54 S12       30.01F WCI  10
CUMBERLAND     FLURRIES  21   9  58 S13G18    30.02F WCI   9
RICE LAKE      LGT SNOW  21  13  71 S14       30.05F WCI   8
CHETEK         CLOUDY    22   9  56 S7        30.05F WCI  14
LADYSMITH      CLOUDY    22  10  60 S5        30.05F WCI  16
EAU CLAIRE     CLOUDY    20  16  84 SE3       30.05F
MENOMONIE      LGT SNOW  21  16  81 SE5       30.06F WCI  15
NEW RICHMOND   LGT SNOW  20  12  69 SE7       30.03F WCI  11
OSCEOLA        LGT SNOW  21  15  78 S7        30.06F WCI  12
$$

WIZ003>005-009-010-017-018-030800-
NORTH CENTRAL WISCONSIN

CITY           SKY/WX    TMP DP  RH WIND       PRES   REMARKS
MANITOWISH WTR CLOUDY    16   3  56 S5        30.01F WCI   9
ARBOR VITAE    CLOUDY    20   5  53 S7        30.01F WCI  11
WOODRUFF       CLOUDY    20   5  53 S7        30.01F WCI  11
RHINELANDER    CLOUDY    20   6  55 S10       30.03F WCI   9
EAGLE RIVER    CLOUDY    18   2  49 S6        30.02F WCI  10
LAND O LAKES   CLOUDY    18   3  52 CALM      30.03F
PHILLIPS       CLOUDY    20   7  56 S9        30.02S WCI  10
TOMAHAWK       CLOUDY    20   7  57 CALM      30.05F
MEDFORD        CLOUDY    20  11  66 S9        30.05F WCI  10
MERRILL        CLOUDY    22   9  56 S7        30.07F WCI  14
$$

WIZ029-030-035-036-043>047-030800-
CENTRAL WISCONSIN

CITY           SKY/WX    TMP DP  RH WIND       PRES   REMARKS
WAUSAU         CLOUDY    22  11  62 S14       30.07F WCI   9
MOSINEE        CLOUDY    23  14  68 S15       30.10F WCI  10
MARSHFIELD     CLOUDY    21  17  84 S7        30.08F WCI  12
STEVENS POINT  MIX PCPN  20  16  86 S9        30.13S WCI   9
WAUPACA        LGT SNOW  25  16  68 S9        30.16F WCI  16
WAUTOMA        NOT AVBL
WISC RAPIDS    CLOUDY    21  15  78 CALM      30.12F
CAMP DOUGLAS   NOT AVBL
$$

WIZ011>013-019>022-031-037>040-048>050-030800-
NORTHEAST WISCONSIN

CITY           SKY/WX    TMP DP  RH WIND       PRES   REMARKS
ANTIGO         CLOUDY    19  10  69 S9        30.07F WCI   8
SHAWANO        CLOUDY    26  13  58 S5        30.15F WCI  20
OCONTO         CLOUDY    22  17  80 S3        30.17F
STURGEON BAY   CLOUDY    23  16  74 S9        30.18F WCI  13
GREEN BAY      CLOUDY    25  15  66 S9        30.17F WCI  15
MANITOWOC      NOT AVBL
APPLETON       CLOUDY    25  14  63 S10       30.17F WCI  15
CLINTONVILLE   CLOUDY    25  14  63 S9        30.15S WCI  15
OSHKOSH        CLOUDY    23  17  78 S6        30.15F WCI  16
$$

WIZ032>034-041-042-053>061-030800-
SOUTHWEST WISCONSIN

CITY           SKY/WX    TMP DP  RH WIND       PRES   REMARKS
LA CROSSE      CLOUDY    26  14  60 SE7       30.08F WCI  18
SPARTA         CLOUDY    24  14  67 SE5       30.12F WCI  18
VIROQUA        CLOUDY    22  16  77 SE8       30.07F WCI  13
BOSCOBEL       CLOUDY    26  16  65 CALM      30.10F
PRAIRIE DU CHI CLOUDY    25  16  68 E7        30.09F WCI  17
PLATTEVILLE    CLOUDY    24  19  82 E9        30.10F WCI  15
$$

WIZ056-057-062-063-064-067-068-030800-
SOUTH CENTRAL WISCONSIN

CITY           SKY/WX    TMP DP  RH WIND       PRES   REMARKS
REEDSBURG      CLOUDY    23  15  71 CALM      30.13F
BARABOO/DELLS  CLOUDY    23  16  75 S6        30.12F WCI  16
LONE ROCK      NOT AVBL
MINERAL POINT  CLOUDY    27  19  74 SE8       30.09F WCI  18
MADISON        CLOUDY    24  15  68 S7        30.14F WCI  16
MIDDLETON      CLOUDY    26  16  66 SE7       30.15F WCI  18
WATERTOWN      CLOUDY    24  17  75 SE5       30.16F WCI  18
MONROE         CLOUDY    23  19  86 SE8       30.12F WCI  14
JANESVILLE     CLOUDY    27  16  63 SE8       30.15F WCI  18
$$

WIZ051-052-058>065-066-070>072-030800-
SOUTHEAST WISCONSIN

CITY           SKY/WX    TMP DP  RH WIND       PRES   REMARKS
MILWAUKEE      CLOUDY    25  16  68 S6        30.20F WCI  18
WAUKESHA       CLOUDY    23  16  74 S5        30.19F WCI  17
MILWAUKEE/TIMM CLOUDY    27  16  63 S6        30.20F WCI  20
RACINE         CLOUDY    27  16  63 S5        30.21F WCI  22
BURLINGTON     CLOUDY    23  15  70 S5        30.19F WCI  17
KENOSHA        CLOUDY    26  16  65 S7        30.20F WCI  18
FOND DU LAC    CLOUDY    24  15  68 S7        30.16F WCI  16
SHEBOYGAN      LGT SNOW  22  20  92 SW3       30.18F FOG
WEST BEND      CLOUDY    25  14  63 SE3       30.18F
JUNEAU         CLOUDY    23  16  73 SE7       30.17F WCI  15
$$

LSZ147-162-030800-
LAKE SUPERIOR

STATION/POSITION TIME  TEMP    WIND        PRES    WAVE
                       AIR SEA DIR/SP/G            HT/PER
                 (UTC) (F)     (DEG/KT/KT) (MB)    (FT/S)
DEVILS ISLAND    0600   21     190/  5/  7 1018.3F
PORT WING        0640   23     190/  9/ 13 1015.9F
SAXON HARBOR     0600   24     180/  4/ 10 1017.3F
$$

LMZ867-665-643>646-030800-
LAKE MICHIGAN

STATION/POSITION TIME  TEMP    WIND        PRES    WAVE
                       AIR SEA DIR/SP/G            HT/PER
                 (UTC) (F)     (DEG/KT/KT) (MB)    (FT/S)
NORTHPORT PIER   0602   23     200/  3/ 11 1022.4F
SISTER BAY       0643   24     200/ 11/ 13   N/A
KEWAUNEE LAKESHO 0600   26     200/  7/ 10   N/A
SHEBOYGAN LAKESH 0600   26     200/ 11/ 12 1024.4F
PORT WASHINGTON  0600   26     240/  4/  5 1024.0
MILWAUKEE LAKESH 0600   26     210/  7/ 10   N/A
KENOSHA   LAKESH 0600   27     180/  5/  8 1023.4F
$$

TC  - TEMPERATURE IN CELSIUS
VSB - VISIBILITY IN STATUTE MILES
WCI - WIND CHILL INDEX
HX  - HEAT INDEX




USA.gov is the U.S. government's official web portal to all federal, state and local government web resources and services.